Location: Izdebno
(52.6670°N, 16.2170°E)
Time: 13:31:44
(UTC+02:00)

A-11 Canister half - Pass Details

Date: 24 February 2024
Orbit: 1525 x 1683 km, 47.3° (Epoch: 24 April)

Event Time Altitude Azimuth Distance (km) Brightness Sun altitude
Rises 21:42:48 0° 234° (SW) 4,748 11.7 -37.7°
Reaches altitude 10° 21:46:00 10° 229° (SW) 3,746 11.1 -38.1°
Enters shadow 21:48:49 22° 222° (SW) 2,918 10.4 -38.4°
